Powrót do katalogu

FENGYUN 1C DEB

AktywnySSO
NORAD 30887·DEBRIS·🇨🇳 China

Wystrzelony May 10, 1999 z Taiyuan Satellite Launch Center

Loading…

Następne Przeloty (najbliższe 24 godziny)

TLE

ŚwieżeSource: Space-Track

Epoka: Sep 12, 2026, 21:07 UTC

1 30887U 99025AXZ 26255.88011507  .00001962  00000-0  36854-3 0  9998
2 30887  98.3341 312.7830 0260197 174.2913 186.1348 14.46354455 20826

Śledź FENGYUN 1C DEB w czasie rzeczywistym z AllMySat

Download on the App Store